カタログに戻る

BLOCK DM-SL R/B

運用中GTO
NORAD 38357·ROCKET BODY· XX

打ち上げ Jun 1, 2012 から Sea Launch Platform

Loading…

TLE

経年Source: Space-Track

元期: Sep 14, 2026, 09:42 UTC

1 38357U 12030B   26257.40463478 -.00000055  00000-0  46258-3 0  9999
2 38357   0.7206  24.8459 7094851  40.1869 350.3976  2.25337845117648

AllMySatでBLOCK DM-SL R/Bをリアルタイム追跡

Download on the App Store